Location: *
(39.6167°S, 171.5333°W)
Time: 06:14:55
(UTC+00:00)

Daily predictions for brighter satellites

Satellite Brightness Start Highest point End
(mag) Time Altitude Azimuth Time Altitude Azimuth Time Altitude Azimuth
COSMOS 2455 4.3 15:01:25 33° ESE 15:01:25 33° ESE 15:05:25 10° SE
Cosmos 2219 4.5 15:22:46 35° SE 15:22:46 35° SE 15:26:03 10° SSE
Cosmos 1464 Rocket 4.4 15:26:01 60° ENE 15:26:35 63° E 15:32:58 10° SSE
SL-16 R/B 3.9 15:33:54 18° S 15:37:05 29° ESE 15:41:59 10° ENE
Cosmos 1190 Rocket 4.5 15:44:58 59° ENE 15:45:18 60° ENE 15:50:36 10° SSE
Timation 2 Rocket 4.0 15:45:56 78° N 15:46:25 87° ENE 15:53:13 10° SSE
In-Cosmos 22 Rocket 4.3 15:47:47 74° ESE 15:47:54 74° E 15:53:33 10° NNE
USA 215 4.4 15:49:41 10° ESE 15:55:51 41° NE 16:01:57 10° NNW
CZ-4B R/B 3.5 16:03:16 10° NNE 16:06:42 57° NNE 16:06:42 57° NNE
Cosmos 407 Rocket 4.0 16:09:45 45° S 16:09:45 45° S 16:13:33 10° SSE
Cosmos 2237 Rocket 2.5 16:09:37 49° NNW 16:09:37 49° NNW 16:14:07 10° N
ASTEX 1 3.6 16:05:15 10° S 16:10:14 70° E 16:15:10 10° N
Lacrosse 5 rocket 1.6 16:14:40 61° ENE 16:14:40 61° ENE 16:17:53 10° NE
Cosmos 2058 Rocket 3.0 16:17:13 64° NNW 16:17:53 85° W 16:22:26 10° S
Cosmos 2227 Rocket 2.5 16:18:44 46° SW 16:18:44 46° SW 16:23:34 10° SSE
MINOTAUR IV R/B 4.5 16:19:27 71° SSW 16:19:56 89° W 16:24:28 10° NNE
Cosmos 2098 Rocket 3.3 16:18:29 26° S 16:20:39 66° E 16:25:33 10° NNE
Cosmos 2297 Rocket 3.2 16:22:36 30° SSW 16:22:36 30° SSW 16:26:11 10° S
Cosmos 1825 2.3 16:22:36 62° SSE 16:23:06 73° E 16:26:53 10° NNE
Aureole 2 Rocket 4.2 16:25:12 21° ESE 16:25:12 21° ESE 16:26:26 10° SE
Cosmos 405 Rocket 3.2 16:23:12 22° S 16:25:43 63° E 16:29:45 10° NNE
Nadezhda 4 Rocket 3.9 16:19:50 10° S 16:26:11 73° W 16:32:30 10° N
Cosmos 1092 Rocket 4.4 16:20:03 10° S 16:26:28 68° E 16:32:48 10° NNE
SMAP 4.2 16:22:56 10° NE 16:27:21 43° ESE 16:31:50 10° S
Envisat 3.0 16:25:15 10° N 16:30:17 58° W 16:32:25 33° SW
Cosmos 2082 3.6 16:28:14 14° NNW 16:33:14 71° WSW 16:39:01 10° SSE
[s.n.48369] 4.5 16:34:18 25° SSE 16:34:18 25° SSE 16:36:43 10° E
[s.n.48367] 4.5 16:34:31 26° SSE 16:34:31 26° SSE 16:36:58 10° E
[s.n.48363] 4.5 16:34:56 26° SSE 16:34:56 26° SSE 16:37:25 10° E
[s.n.48362] 4.4 16:35:03 26° SSE 16:35:03 26° SSE 16:37:32 10° E
[s.n.48361] 4.4 16:35:11 26° SSE 16:35:11 26° SSE 16:37:40 10° E
[s.n.48360] 4.4 16:35:18 26° SSE 16:35:18 26° SSE 16:37:48 10° E
[s.n.48359] 4.4 16:35:25 26° SSE 16:35:26 26° SSE 16:37:56 10° E
[s.n.48358] 4.4 16:35:33 26° SSE 16:35:33 26° SSE 16:38:03 10° E
[s.n.48357] 4.4 16:35:39 26° SSE 16:35:41 26° SSE 16:38:11 10° E
[s.n.48356] 4.4 16:35:47 26° SSE 16:35:48 26° SSE 16:38:19 10° E
[s.n.48355] 4.4 16:35:53 26° SSE 16:35:55 26° SSE 16:38:26 10° E
[s.n.48354] 4.4 16:35:57 26° SSE 16:35:59 26° SSE 16:38:30 10° E
[s.n.48353] 4.4 16:36:06 26° SSE 16:36:07 26° SSE 16:38:38 10° E
Cosmos 1954 Rocket 3.9 16:30:55 10° NNW 16:36:15 78° WSW 16:41:39 10° SSE
Cosmos 2026 Rocket 4.4 16:30:49 10° S 16:37:04 64° E 16:43:09 10° NNE
SL-4 R/B 3.7 16:37:47 20° S 16:39:07 24° SSE 16:42:22 10° ESE
IRAS Rocket 4.2 16:36:37 10° SSE 16:42:13 86° ENE 16:47:46 10° NNW
Cosmos 1076 Rocket 4.3 16:41:05 10° S 16:45:27 54° E 16:49:46 10° NNE
COSMOS 2455 3.4 16:44:38 32° WSW 16:45:47 35° SW 16:51:18 10° SSE
Meteor 2-1 Rocket 4.1 16:40:48 10° NNW 16:46:18 73° W 16:51:55 10° S
Cosmos 1356 3.6 16:50:05 48° W 16:50:05 48° W 16:53:20 10° N
SL-24 R/B 4.0 16:45:52 10° S 16:50:10 51° WSW 16:53:58 10° NNW
CZ-3 R/B 3.7 16:35:09 10° NW 16:50:41 32° N 16:56:23 10° ENE
MOS 1 Rocket 4.0 16:45:26 10° SSE 16:50:55 71° E 16:56:22 10° N
CZ-4C R/B 3.4 16:52:42 10° SSE 16:56:17 64° E 16:59:43 10° N
USA 229 DEB 4.0 16:51:25 10° SSW 16:58:09 64° SE 17:04:29 10° NE
USA 229 4.0 16:51:31 10° SSW 16:58:15 63° SE 17:04:33 10° NE
Cosmos 2151 4.3 16:56:55 10° S 17:01:04 43° ESE 17:05:10 10° NNE
CORIOLIS 4.2 16:58:25 10° NNE 17:03:48 85° ESE 17:09:17 10° SSW
H-2A R/B 4.2 16:59:44 10° ENE 17:04:16 27° ESE 17:08:47 10° S
CZ-2C R/B 3.8 17:01:27 10° NNE 17:06:57 61° ESE 17:12:14 10° S
Cosmos 1741 Rocket 4.3 17:04:25 10° N 17:09:41 74° ENE 17:15:03 10° SSE
NOAA 12 4.2 17:07:00 10° N 17:12:15 58° W 17:17:36 10° SSW
DELTA 2 R/B (1) 3.6 17:08:37 20° W 17:12:33 89° S 17:18:12 10° E
Cosmos 839 Rocket 4.0 17:06:27 10° NNW 17:12:55 90° SW 17:19:07 10° SSE
Cosmos 2263 Rocket 2.3 17:08:41 10° NNW 17:14:23 84° ENE 17:20:09 10° SSE
X-37B 1.9 17:16:30 20° SW 17:17:59 30° S 17:20:54 10° ESE
NOSS 3-1 (A) 3.4 17:12:15 10° SSW 17:18:31 78° SE 17:23:50 10° NE
GENESIS II 4.2 17:17:05 11° SSW 17:20:50 89° WNW 17:24:47 10° NNE
SL-16 R/B 2.7 17:15:58 10° SW 17:21:17 41° WNW 17:26:35 10° N
Cosmos 1812 Rocket 3.6 17:20:01 10° NNW 17:24:18 56° W 17:28:40 10° S
Aureole 3 3.1 17:22:12 10° NNW 17:25:24 53° W 17:29:17 10° S
NOSS 2-3 (E) 4.3 17:19:18 10° SW 17:26:01 63° WNW 17:31:05 10° NNE
PAYLOAD B 4.4 17:21:26 10° N 17:26:56 54° W 17:32:31 10° SSW
CZ-4B R/B 3.2 17:21:23 10° N 17:26:59 78° WNW 17:32:34 10° SSW
Cosmos 1943 4.0 17:21:41 10° SSW 17:27:18 52° ESE 17:32:49 10° NE
NOSS 3-1 (C) 3.5 17:23:47 10° SW 17:29:36 48° WNW 17:34:38 10° N
CZ-4 R/B 3.5 17:27:39 10° NE 17:31:08 29° ESE 17:34:42 10° S
Cosmos 1634 Rocket 4.4 17:26:19 10° NNW 17:32:16 42° WSW 17:38:19 10° S
Cosmos 1633 2.6 17:28:53 10° SSW 17:32:31 58° W 17:36:07 10° N
COSMO-SKYMED 1 2.7 17:29:28 10° SSE 17:33:54 81° ENE 17:38:16 10° N
ATLAS 5 CENTAUR R/B 4.4 17:31:36 10° S 17:34:27 14° SSE 17:37:06 10° ESE
FALCON 9 DEB 3.3 17:31:30 12° SW 17:34:27 59° SE 17:37:36 10° ENE
H-2A R/B 2.0 17:32:25 10° SSE 17:36:42 87° WSW 17:41:01 10° NNW
Cosmos 2058 4.4 17:34:17 10° SW 17:37:09 18° W 17:40:01 10° NW
Cosmos 1809 Rocket 4.4 17:31:35 10° S 17:37:47 80° W 17:43:52 10° N
Gbstr 26 Del rocket 3.8 17:35:55 12° W 17:38:54 29° SSW 17:42:31 10° SE
FALCON 9 DEB 3.1 17:35:51 11° SW 17:38:56 71° SE 17:42:06 10° NE
USA 215 3.4 17:32:28 10° SE 17:38:57 58° SW 17:45:22 10° WNW
Okean O Rocket 1.7 17:37:00 10° N 17:41:19 60° W 17:45:44 10° SSW
Cosmos 1655 Rocket 4.2 17:43:39 10° S 17:50:10 86° E 17:56:36 10° N
YAOGAN 1 3.8 17:48:16 10° NE 17:52:26 45° ESE 17:56:37 10° S
Okean-O 4.2 17:49:10 10° NE 17:53:17 37° ESE 17:57:26 10° S
Cosmos 2227 4.4 17:47:56 10° NW 17:53:27 53° WSW 17:59:02 10° SSE
Cosmos 1763 Rocket 3.9 17:50:04 10° SSW 17:55:08 45° WNW 18:00:06 10° N
IRIDIUM 103 4.4 17:51:29 10° N 17:56:44 87° W 18:02:04 10° S
Aureole 1 Rocket 4.5 17:51:06 10° NNW 17:57:51 64° WSW 18:06:07 10° SSE
